Weather in Yar

Russia / Tyumen Oblast     56°31′53″N   66°03′00″E
temp.,
°C
wind,
m/s
gust,
m/s
humid.,
%
clouds,
%
prec.,
mm/h
press.,
hPa
HPBL,
m
7 march, sun
sun723:00−8w5109373 0.3 1009553
02:00−14w369032 0.0 1011120
05:00−17wsw339219 0.0 101235
08:00−18sw229273 0.0 101222
11:00−12s128687 0.0 1012185
14:00−9ese2489100 0.1 1010363
17:00−8ene4795100 0.9 1006447
20:00−9ne4795100 1.6 1003363
8 march, mon
mon823:00−9n4895100 2.8 1003333
02:00−11nw499397 0.4 1004306
05:00−16wnw479591 0.4 1006156
08:00−20w35980 0.0 100884
11:00−15wsw369319 0.0 1009259
14:00−10sw478666 0.0 1009642
17:00−11s488883 0.0 1009561
20:00−11s51192100 0.1 1007543
9 march, tue
tue923:00−9ssw51392100 0.2 1006610
02:00−6ssw51389100 0.1 1005724
05:00−6sw61484100 0.1 1005605
08:00−9sw5148423 0.0 1007532
11:00−5sw5108211 0.0 1008787
14:00−2ssw588681 0.0 1008852
17:00−5s7129290 0.4 1006735
20:00−6ssw51293100 0.2 1003627
10 march, wed
wed1023:00−4sw61189100 0.3 1003670
02:00−9sw51189100 0.0 1004335
05:00−10wnw3695100 0.0 1005123
08:00−12nnw2396100 0.0 100554
11:00−10n2492100 0.0 1005238
14:00−9nne3591100 0.0 1004339
17:00−9nne4793100 0.1 1002429
20:00−11nne4895100 0.8 1003445
11 march, thu
thu1123:00−13n5994100 1.3 1003480
02:00−16n4994100 0.3 1004459
05:00−18nnw3796100 0.4 1008338
08:00−22nw3594100 0.0 1010143
11:00−20w249160 0.0 1011262
14:00−16wsw36820 0.0 1011472
17:00−16wsw488733 0.0 1011631
20:00−18sw4994100 0.1 1012393